                ,  1.160,  1.308,  1.456,  1.604,  1.751,  1.899,  2.047,  2.194,  2.342,  2.490,  2.638,  2.785,  2.933,  3.081,  3.229,  3.376,  3.524,  3.672,  3.819,  3.967,  4.115,  4.263,  4.410,  4.558,  4.706,  4.853,  5.001,  5.149,  5.297,  5.444
2005/12/15 00:00,    5.1,    6.2,    9.2,   10.5,   10.8,   13.3,  999.0,  999.0,  999.0,  999.0,  999.0,  999.0,  999.0,  999.0,  999.0,  999.0,  999.0,  999.0,  999.0,  999.0,   10.8,   10.8,  999.0,  999.0,    6.6,    6.2,    7.4,    8.1,    9.5,  999.0
2005/12/15 00:10,    4.7,    6.5,    8.4,   10.2,   10.2,   10.4,   12.1,   14.8,   14.8,   16.1,   15.3,   16.2,   15.5,   16.1,   16.2,  999.0,  999.0,  999.0,  999.0,  999.0,   10.7,    7.7,  999.0,    4.4,    7.8,    8.6,    7.3,    7.0,    6.8,    9.0
2005/12/15 00:20,    5.5,    7.3,    9.0,    9.9,   11.5,   12.7,   11.3,   12.9,   15.4,   15.2,   15.9,   15.9,   16.5,   14.9,   14.0,   13.9,    8.4,  999.0,  999.0,  999.0,  999.0,  999.0,  999.0,   10.6,   10.6,    7.9,    7.6,    7.7,    8.4,    7.8
2005/12/15 00:30,    5.0,    6.6,    7.5,   10.0,   11.1,   12.2,   12.2,   13.0,   13.9,   16.0,   17.9,   17.4,   18.4,   17.3,   14.1,  999.0,  999.0,  999.0,  999.0,  999.0,  999.0,  999.0,   12.1,   10.8,   10.9,    8.5,    6.1,    5.5,    5.8,    7.5
2005/12/15 00:40,    4.3,    5.7,    7.9,   10.0,   10.5,   11.0,   12.4,   13.8,   13.8,   15.1,   17.1,   17.4,   17.6,   16.9,   15.0,   11.8,   13.9,  999.0,  999.0,  999.0,  999.0,   11.2,   10.6,   10.4,   11.3,    9.0,    6.3,    4.9,    4.6,    5.9
2005/12/15 00:50,    4.8,    6.2,    7.8,    9.5,   11.1,   10.7,   15.1,   14.6,   15.9,   16.3,   16.2,   17.9,   15.7,   15.9,   14.4,  999.0,  999.0,  999.0,  999.0,  999.0,  999.0,  999.0,   10.3,   11.2,   12.5,   10.4,    7.9,    5.9,    3.3,    6.4
2005/12/15 01:00,    5.2,    6.7,   10.0,   10.2,   11.5,   11.3,   13.1,   11.1,   13.5,   15.1,   16.2,   16.4,   17.0,   15.6,   15.7,  999.0,  999.0,  999.0,  999.0,  999.0,  999.0,   11.5,   12.2,   10.5,   11.8,    8.5,    8.2,    5.9,    7.0,    1.7
2005/12/15 01:10,    5.3,    6.6,    7.2,    9.6,   10.4,   11.4,   11.5,   13.0,   14.0,   15.7,   16.0,   15.4,   14.6,   13.2,   14.1,   15.6,   16.2,   12.6,   10.6,   11.3,   11.7,   12.0,   15.3,  999.0,   11.8,    9.6,    7.1,  999.0,  999.0,    2.4
2005/12/15 01:20,    5.2,    7.2,    8.6,   10.3,   11.3,   13.2,   12.8,   15.0,   13.8,   13.1,   14.7,   15.9,   16.3,   15.5,   16.3,   18.6,   15.5,   13.5,   10.7,   12.3,   13.1,   13.1,   14.0,    9.5,    8.2,    7.8,    7.2,    4.1,   -0.2,    0.2
2005/12/15 01:30,    5.0,    7.6,    8.4,    7.5,    8.9,   12.3,   13.6,   14.0,   13.1,   14.7,   16.0,   16.1,   16.7,   16.9,   19.1,   19.6,   16.5,   12.9,   10.8,   12.1,  999.0,  999.0,   10.2,   11.0,    9.2,    9.1,    2.2,  999.0,  999.0,    1.6
2005/12/15 01:40,    3.6,    6.6,    7.1,    9.9,   11.8,   11.8,   14.3,   12.5,   19.0,   14.9,   16.0,   15.2,   15.8,   16.7,   17.2,   17.7,   20.4,  999.0,  999.0,  999.0,  999.0,  999.0,  999.0,  999.0,    6.5,    6.5,    2.7,  999.0,    0.5,   -0.2
2005/12/15 01:50,    5.9,    8.9,    5.8,   11.3,   12.7,    7.2,  999.0,   13.7,   14.0,   14.7,   14.5,   14.9,   15.4,   17.4,   18.0,   20.1,   17.4,  999.0,  999.0,  999.0,  999.0,   12.5,   13.2,    8.5,    8.2,    6.3,    4.5,    3.5,  999.0,    1.7
2005/12/15 02:00,    5.9,    7.4,    8.1,    8.5,   11.8,   14.0,   15.1,   15.0,   14.1,  999.0,  999.0,  999.0,   18.7,   19.1,  999.0,  999.0,  999.0,  999.0,  999.0,   14.8,   13.7,   15.7,   13.0,   10.8,    9.1,    6.7,    6.0,    4.8,    4.1,    4.3
2005/12/15 02:10,    8.6,    7.8,   10.1,    9.4,   12.1,   14.1,   14.4,   14.7,   15.6,   16.7,   16.3,   15.6,  999.0,  999.0,  999.0,   16.9,  999.0,  999.0,  999.0,   13.2,   12.6,   12.5,   10.5,  999.0,  999.0,    8.1,    6.7,    5.2,    4.1,    2.7
2005/12/15 02:20,    6.0,    7.8,    9.3,   10.2,   11.7,   13.6,   14.8,   14.2,   13.8,   15.6,   15.4,   13.4,   14.5,   15.1,  999.0,  999.0,  999.0,  999.0,  999.0,   15.9,   17.8,   13.7,  999.0,  999.0,   10.8,   11.4,    9.2,    6.2,    4.6,    3.7
2005/12/15 02:30,    5.5,    7.1,    8.2,   10.5,   12.8,   13.7,   14.0,   14.6,   14.9,   16.2,   15.9,   15.7,    8.4,  999.0,   16.1,   16.6,   18.0,   16.2,   11.8,   13.7,   13.3,   11.4,   10.5,  999.0,    9.2,    8.7,    6.9,    4.3,    4.2,    2.5
2005/12/15 02:40,    7.3,    8.9,    9.9,   11.1,   12.9,   14.0,   14.6,   14.8,   16.1,   14.2,   16.1,  999.0,  999.0,   15.8,   16.2,   18.2,   17.8,   17.1,   14.8,   14.4,   14.0,   12.9,    9.0,    7.5,    9.2,    8.3,    5.7,    4.8,    3.1,    3.1
2005/12/15 02:50,    7.4,    8.7,   10.3,   11.3,   13.4,   14.3,   15.3,   13.7,   13.6,   15.4,   15.6,   15.7,   15.9,   16.3,   17.2,   17.0,   15.0,   16.3,   15.1,   13.9,   12.7,   12.8,   11.1,    9.1,    8.2,    8.8,    4.4,    3.2,    2.9,    3.8
2005/12/15 03:00,    6.2,    8.3,    9.3,   10.5,   11.5,   12.4,   15.1,   15.4,   13.8,   15.1,   16.0,   16.1,   16.8,   14.5,   21.9,   22.2,   18.7,   18.9,   15.1,   15.6,   14.5,   11.3,   10.8,    8.1,    9.5,    7.4,    3.9,    2.1,    3.2,    2.4
2005/12/15 03:10,    5.8,    8.7,   10.3,   11.5,   13.0,   12.7,   13.3,   15.3,   15.3,   14.8,   15.4,   15.3,   14.5,   14.5,   14.3,   15.8,   14.5,   16.1,   16.2,   16.9,   14.4,   15.8,   15.3,    9.1,  999.0,   10.8,  999.0,  999.0,  999.0,  999.0
2005/12/15 03:20,   10.2,    7.5,   -4.8,    3.4,   14.3,   15.6,   15.5,   17.0,   17.7,   16.5,   17.4,   16.4,   16.7,   17.5,   18.4,   19.3,   18.6,   19.3,   18.9,   15.6,   13.5,   12.2,    9.4,    7.4,    7.5,    7.9,    7.6,    6.3,    3.6,    3.9
2005/12/15 03:30,    5.4,    6.3,   10.6,  999.0,   11.4,   15.2,   14.7,   15.2,   15.3,  999.0,   15.9,   17.4,   16.4,   17.2,   16.9,   17.4,   15.3,   16.0,   14.8,   12.9,   11.0,    8.7,    7.7,  999.0,    6.9,    7.6,    6.3,    3.7,    2.3,    4.3
2005/12/15 03:40,    1.8,    6.1,  999.0,  999.0,   10.1,   22.9,  999.0,   15.3,   15.6,   14.0,   11.5,  999.0,  999.0,  999.0,  999.0,   18.4,   13.5,   14.1,   15.7,   14.3,   12.4,    9.5,    7.4,  999.0,  999.0,    6.0,    6.1,    4.9,    4.7,    1.7
2005/12/15 03:50,    3.2,    5.7,    6.7,    9.2,   10.8,   13.4,   14.7,   15.6,  999.0,  999.0,  999.0,  999.0,  999.0,   -0.5,  999.0,   -0.2,  999.0,   18.2,   16.4,   14.0,   12.7,    0.2,    7.1,    2.5,    3.6,    3.0,    2.9,    3.2,    3.0,    2.1
2005/12/15 04:00,  999.0,    2.6,    7.2,   10.1,   12.3,   13.6,   14.5,  999.0,  999.0,  999.0,  999.0,  999.0,  999.0,   -0.3,    2.1,   -0.3,  999.0,  999.0,    0.4,   -0.4,    0.4,  999.0,  999.0,    0.3,    0.9,    0.6,  999.0,  999.0,  999.0,  999.0
2005/12/15 04:10,    0.9,    3.8,    5.5,    9.7,   11.8,   10.2,   12.7,   13.5,   10.6,  999.0,  999.0,  999.0,    0.1,    0.1,   -0.4,   -0.0,  999.0,  999.0,    2.0,    0.8,    2.1,    0.4,   -2.4,    0.1,    0.6,    0.2,  999.0,  999.0,   -0.0,    0.0
2005/12/15 04:20,    1.7,    4.7,    7.6,    9.5,   11.5,   12.4,   13.1,   15.5,  999.0,  999.0,  999.0,  999.0,   -0.5,    0.2,   -0.1,   -0.1,    0.2,    0.0,    0.8,   -0.1,   -0.5,  999.0,  999.0,   -0.1,   -1.0,   -0.4,  999.0,  999.0,   -0.5,    0.1
2005/12/15 04:30,    2.4,    3.5,    8.9,    6.2,   11.5,   13.8,   12.7,   15.3,   14.1,   14.2,  999.0,  999.0,  999.0,  999.0,    0.7,    0.3,  999.0,   -0.0,  999.0,    0.4,   -0.7,  999.0,   -0.6,   -0.4,    0.7,   -2.6,  999.0,  999.0,  999.0,   -0.5
2005/12/15 04:40,    3.0,    5.5,    3.6,    6.5,   10.5,   10.2,   11.4,   12.2,   14.4,   14.4,   16.4,  999.0,  999.0,    1.4,    0.0,    1.7,   -0.4,   -0.2,  999.0,    0.0,    0.2,    0.5,  999.0,    2.2,    0.3,  999.0,  999.0,  999.0,  999.0,   -0.4
2005/12/15 04:50,    4.9,    5.6,    7.6,   10.4,   11.2,   13.2,   13.8,   14.7,   15.2,   16.3,   15.1,   16.0,    0.1,    1.8,    0.6,    0.3,    0.2,    0.9,   -0.0,    0.3,   -0.0,   -0.6,  999.0,    0.2,    0.3,    0.4,  999.0,  999.0,    0.3,   -0.3
2005/12/15 05:00,    4.3,    3.4,    6.4,    9.4,    9.0,   12.9,   13.7,   13.3,   15.3,   15.8,   12.4,  999.0,  999.0,    1.4,    0.9,    1.9,    6.5,    0.2,   -1.3,    0.3,    0.3,   -0.6,   -0.2,   -0.4,   -0.6,   -0.7,  999.0,  999.0,    1.3,    0.2
2005/12/15 05:10,    3.9,    5.2,    6.9,    8.4,    9.3,   10.8,   12.0,   13.5,   13.0,   13.0,   15.3,   13.8,  999.0,    1.4,    0.2,    0.5,    0.4,   -1.2,    1.2,    1.3,  999.0,  999.0,  999.0,   -0.2,   -0.1,  999.0,  999.0,  999.0,  999.0,   -1.2
2005/12/15 05:20,    2.9,    2.6,    5.7,    7.0,    9.2,   10.5,   11.9,   13.7,   14.1,   11.5,   13.7,   14.6,  999.0,    0.9,    0.5,   -0.0,    1.5,   -0.4,    0.5,   -0.1,  999.0,   -0.7,   -0.4,    0.3,    0.7,  999.0,  999.0,  999.0,  999.0,    0.2
2005/12/15 05:30,    2.6,    2.8,    4.7,    9.9,   13.8,   12.2,   13.4,   12.3,   12.4,   13.1,   13.7,   13.9,  999.0,    2.1,   -0.6,    0.1,  999.0,  999.0,   -0.8,   -1.3,  999.0,   -3.8,  999.0,    0.1,    0.6,    0.5,  999.0,  999.0,   -1.4,    0.1
2005/12/15 05:40,    1.6,    2.1,    4.3,    8.7,    8.6,   11.4,   12.6,   13.9,   12.1,   13.0,   13.2,   12.4,   15.3,    1.9,    0.3,    0.3,    0.1,    0.9,   -0.1,   -0.0,    1.1,   -0.3,  999.0,   -0.3,    0.8,   -0.0,  999.0,  999.0,   -1.1,    0.2
2005/12/15 05:50,    6.2,    5.8,    6.2,    9.9,   12.2,   13.0,   13.2,    9.9,   12.7,   13.1,   13.5,   13.6,  999.0,    1.2,    0.0,    0.3,    0.4,   -1.7,   -1.1,   -1.6,    0.7,   -1.8,   -1.2,   -0.2,   -0.5,   -0.2,  999.0,  999.0,   -0.2,   -1.2
2005/12/15 06:00,    6.5,    7.2,    9.6,    9.7,   12.1,   12.1,   12.4,   13.2,   14.1,  999.0,  999.0,  999.0,  999.0,    1.2,    0.7,   -0.1,  999.0,    0.3,   -0.1,   -0.5,   -0.1,  999.0,    0.4,    0.3,    0.2,  999.0,  999.0,  999.0,   -2.0,  999.0
2005/12/15 06:10,    5.1,    5.7,    7.2,   10.3,   11.8,   11.4,   12.9,   13.9,   13.7,   13.4,   13.5,  999.0,  999.0,    0.0,    0.5,    0.1,    0.7,  999.0,    0.5,    0.6,   -0.5,    0.3,    2.9,   -0.3,   -0.1,    0.4,  999.0,  999.0,  999.0,    0.5
2005/12/15 06:20,    4.9,    5.1,    8.6,    8.7,    8.7,   10.4,   12.0,   12.7,   12.4,   14.1,   12.6,  999.0,  999.0,   -1.0,   -0.7,    0.2,   -0.6,   -0.9,    0.4,   -0.5,   -0.6,   -1.0,   -0.4,    0.6,    0.1,   -0.1,  999.0,  999.0,   -0.1,    0.6
2005/12/15 06:30,  999.0,    6.2,    7.1,    9.3,   11.4,   12.4,   13.6,   12.9,   13.4,   13.5,  999.0,  999.0,    1.6,    0.0,   -0.2,    1.1,   -0.3,    0.1,    1.0,    0.9,    2.4,  999.0,    1.5,   -0.8,    0.7,   -0.0,  999.0,  999.0,  999.0,    0.4
2005/12/15 06:40,    3.3,    7.1,   10.0,   11.5,   11.0,   11.6,   13.2,   11.3,   11.3,   13.9,  999.0,  999.0,  999.0,   -0.5,   -0.0,    0.5,    0.4,    0.9,   -0.8,    0.6,   -1.7,    0.7,    0.4,    0.6,    0.8,    0.3,  999.0,  999.0,    1.4,    1.0
2005/12/15 06:50,    4.0,    6.0,    7.4,   10.4,   10.2,   12.0,   12.0,   13.6,   15.6,   15.6,  999.0,   15.1,    1.2,    0.6,   -0.3,    0.1,    0.2,    1.1,    0.6,    0.4,    0.6,    0.8,    0.2,   -0.3,    0.3,   -0.4,  999.0,  999.0,  999.0,    0.7
2005/12/15 07:00,    3.5,    7.7,    9.0,    7.8,   11.5,   11.8,   12.9,   13.0,   13.4,   13.8,   14.2,  999.0,  999.0,    0.2,    0.1,    0.1,   -0.1,   -1.7,    0.4,   -0.1,  999.0,    0.1,  999.0,  999.0,    0.8,  999.0,  999.0,  999.0,   -0.4,   -0.4
2005/12/15 07:10,    5.7,    5.4,    6.7,    8.5,   10.3,   10.7,   10.3,   13.2,   14.1,  999.0,   11.5,  999.0,    8.7,    0.6,    0.5,   -0.1,   -0.2,    1.3,   -0.4,    1.5,    0.8,  999.0,    0.7,    1.1,    0.1,   -0.2,  999.0,  999.0,   -0.0,    0.4
2005/12/15 07:20,    2.6,    6.6,    8.3,    6.5,   10.3,   10.8,    9.3,   10.2,   12.7,  999.0,  999.0,  999.0,    0.1,    0.2,    0.6,    0.2,   -0.0,   -0.1,  999.0,   -0.1,  999.0,  999.0,   -0.6,   -0.2,    0.3,    0.9,  999.0,  999.0,    0.8,    0.4
2005/12/15 07:30,    5.0,    5.8,    5.3,   11.1,    9.3,   12.1,   13.8,   14.8,   13.2,    9.9,  999.0,  999.0,   -0.8,   -0.0,    0.6,   -0.4,    0.3,    0.1,   -0.0,    1.5,   -0.8,  999.0,  999.0,   -0.7,   -0.5,  999.0,  999.0,  999.0,    0.0,    2.5
2005/12/15 07:40,   11.1,   11.2,   12.1,   12.9,   13.4,   11.5,   12.8,   12.1,   13.9,   14.0,   15.4,  999.0,  999.0,    0.0,    0.5,   -0.3,    0.9,    0.1,    0.5,   -0.1,   -0.2,   -0.9,   -0.6,    1.1,    0.1,  999.0,  999.0,  999.0,    0.3,   -0.2
2005/12/15 07:50,    6.2,    6.3,    6.5,   10.4,   10.3,   11.2,   10.5,    6.6,    8.9,    9.8,    8.0,  999.0,    3.8,    3.1,   -0.1,    0.7,   -0.2,    0.4,   -1.2,    1.6,    0.4,  999.0,  999.0,    0.0,   -0.4,  999.0,  999.0,  999.0,    0.3,   -0.4
2005/12/15 08:00,    8.6,    4.3,    4.7,   12.1,   12.3,   12.8,   10.8,   10.7,  999.0,  999.0,  999.0,  999.0,  999.0,    3.3,   -0.2,    0.6,  999.0,    0.4,    0.0,   -0.4,   -0.3,  999.0,   -0.1,   -0.5,   -0.1,  999.0,  999.0,  999.0,  999.0,    1.3
2005/12/15 08:10,    2.1,    6.4,    4.9,   10.0,    9.2,   10.3,    7.8,   12.6,   13.3,   10.7,  999.0,  999.0,    0.3,    1.0,   -0.0,    0.3,    0.4,    0.8,   -0.1,  999.0,   -1.0,  999.0,   -1.2,   -0.3,    0.2,    0.0,  999.0,  999.0,    1.3,    0.3
2005/12/15 08:20,    4.6,    5.7,    9.7,    8.8,   14.4,   13.2,   11.8,   11.8,   13.2,   13.1,  999.0,  999.0,   -0.6,  999.0,    0.7,    0.4,   -0.3,   -0.4,    1.8,  999.0,   -0.7,  999.0,  999.0,   -0.6,   -0.2,  999.0,  999.0,  999.0,   -0.1,    1.5
2005/12/15 08:30,    2.0,    3.6,    5.4,    6.8,    7.3,    8.6,   14.4,   13.0,   11.6,   13.8,   14.3,   12.1,  999.0,  999.0,    1.3,   -0.1,    0.4,    0.8,    0.1,   -0.2,  999.0,   -0.8,   -1.6,    0.0,    0.2,  999.0,  999.0,  999.0,  999.0,    0.5
2005/12/15 08:40,    6.1,    8.4,    8.4,   10.9,   12.0,   13.3,   13.1,   13.7,   11.7,   13.4,   12.3,   13.2,  999.0,   -0.6,    1.2,    0.7,   -0.4,   -1.1,   -0.1,  999.0,    0.9,    0.5,   -0.6,   -0.2,    0.6,  999.0,  999.0,  999.0,  999.0,    0.1
2005/12/15 08:50,    4.2,    5.9,    7.0,    4.6,    8.4,   10.6,   11.6,   11.5,   10.7,   11.2,   11.7,   14.0,   15.8,   15.7,    5.4,  999.0,    1.1,  999.0,   -0.3,   -0.0,    0.1,    0.2,    0.4,   -0.3,    1.3,  999.0,  999.0,  999.0,  999.0,   -1.0
2005/12/15 09:00,    3.4,    6.2,    4.3,    7.9,    4.4,    4.1,    4.9,    6.8,    4.6,    8.5,   11.3,   11.2,   11.8,   11.0,    9.6,    9.3,  999.0,  999.0,  999.0,    0.6,   -0.5,  999.0,   -0.1,  999.0,  999.0,    0.3,  999.0,  999.0,  999.0,  999.0
2005/12/15 09:10,    6.0,    5.9,    6.2,    6.0,    7.8,    8.6,    9.0,    9.4,    8.5,    8.4,    9.2,    9.5,    8.7,    6.4,    3.9,    2.0,    8.1,    9.9,    2.6,    1.0,  999.0,   -1.2,    1.2,   -0.5,    0.7,    0.8,  999.0,  999.0,  999.0,   -0.7
2005/12/15 09:20,    5.2,    6.7,    7.4,    8.8,   11.0,   12.9,   13.7,   14.1,   14.5,   13.9,   13.6,   12.8,   13.5,   13.8,   14.3,   14.3,    8.6,    9.8,   10.1,    1.1,    3.9,    2.9,  999.0,   -0.2,    0.3,   -0.3,  999.0,  999.0,  999.0,  999.0
2005/12/15 09:30,    6.8,    9.9,   11.3,   12.1,   13.3,   13.5,   11.4,   12.6,   13.3,   14.5,   12.7,   15.4,   14.9,   13.9,   13.0,   10.5,    2.2,    2.2,  999.0,    9.7,    6.8,  999.0,    7.5,    1.6,    0.2,    0.8,  999.0,  999.0,  999.0,    0.4
2005/12/15 09:40,    7.5,    7.2,    7.9,    9.4,   11.3,   12.9,   12.2,   13.3,   14.9,   14.7,   13.0,   12.3,   13.5,   12.9,    6.5,    3.0,    4.8,  999.0,    1.1,   -0.0,  999.0,  999.0,   -0.0,    0.0,   -0.1,    0.0,  999.0,  999.0,    1.2,   -0.0
2005/12/15 09:50,    5.7,    7.5,    8.4,    8.9,    7.7,   11.8,   13.0,   11.0,   12.8,   15.9,   17.7,   17.1,   16.9,   16.3,   17.6,   12.1,   13.5,   13.8,    9.3,   11.1,    7.8,    2.5,    0.2,    0.9,    0.2,  999.0,  999.0,  999.0,  999.0,    1.0
2005/12/15 10:00,    7.6,    7.7,    9.2,   10.4,   11.9,   11.3,   12.8,   12.7,   13.9,   14.8,   15.3,   16.5,   17.7,   17.0,   16.0,   15.9,   15.7,   14.0,   14.5,   14.7,   14.1,   12.6,  999.0,    1.5,   -0.2,   -0.1,  999.0,  999.0,  999.0,   -0.6
2005/12/15 10:10,    9.0,    7.8,    7.6,   10.7,   10.6,   11.9,   11.9,   11.7,   13.0,   14.1,   14.8,   15.5,   15.9,  999.0,  999.0,  999.0,  999.0,    0.1,  999.0,   -1.0,  999.0,  999.0,    0.6,   -0.3,   -0.3,   -2.7,  999.0,  999.0,  999.0,  999.0
2005/12/15 10:20,    5.6,    6.3,    8.3,    7.9,    9.9,   10.6,   10.7,   13.1,   14.3,   15.8,   16.4,   16.1,   18.8,  999.0,  999.0,    0.1,  999.0,    0.6,  999.0,    5.2,  999.0,  999.0,  999.0,   -0.6,    0.0,  999.0,  999.0,  999.0,  999.0,    0.9
2005/12/15 10:30,    5.5,    7.2,    9.2,    9.5,   10.5,   11.4,   12.2,   13.5,   14.0,   13.8,   14.5,   18.2,   17.5,   17.6,   18.1,   18.3,   16.8,   16.5,   16.6,   13.3,  999.0,  999.0,  999.0,  999.0,    1.4,  999.0,  999.0,  999.0,  999.0,  999.0
2005/12/15 10:40,    6.6,    9.6,   10.8,    9.8,   11.2,   12.3,   12.9,   13.5,   14.5,   15.1,   16.3,   17.5,   17.2,   17.6,   17.6,   18.7,   19.1,   18.1,   19.0,   19.4,  999.0,  999.0,  999.0,   -0.7,   -1.6,  999.0,  999.0,  999.0,  999.0,   -0.1
2005/12/15 10:50,    5.5,    7.5,    7.1,    9.2,    8.5,   11.5,   11.9,   11.9,   13.6,   14.7,   15.4,   16.7,   16.8,   16.4,   17.1,   18.5,   19.1,   18.6,   18.1,   17.9,  999.0,  999.0,  999.0,    7.8,    0.3,  999.0,  999.0,  999.0,  999.0,  999.0
2005/12/15 11:00,    4.7,    5.3,    4.6,    8.7,    6.6,    9.9,   12.2,   15.1,   14.5,   16.5,   19.2,   11.6,  999.0,  999.0,   -0.3,  999.0,  999.0,  999.0,  999.0,  999.0,  999.0,  999.0,  999.0,   16.9,   18.1,   16.4,  999.0,  999.0,  999.0,  999.0
2005/12/15 11:10,    3.2,    3.9,    5.0,    3.3,    4.6,    5.8,   15.3,   16.0,   12.7,   13.1,   13.4,   10.0,  999.0,  999.0,    0.0,    0.7,  999.0,    0.4,   -0.4,  999.0,  999.0,  999.0,  999.0,  999.0,   17.8,   17.6,  999.0,  999.0,  999.0,  999.0
2005/12/15 11:20,    4.6,    5.9,    6.7,   10.0,    6.7,    6.2,    9.4,   11.8,   12.4,   13.2,   15.5,   17.2,   15.2,   15.8,  999.0,   -0.3,   -1.1,  999.0,    1.0,   -0.2,   -0.0,  999.0,  999.0,  999.0,   18.2,   16.8,   15.8,   18.6,  999.0,   12.3
2005/12/15 11:30,    4.9,    5.7,    6.4,    9.4,   11.4,   13.0,   13.8,   15.0,   16.1,   15.6,   16.4,   17.5,   18.0,   17.7,   19.4,   20.3,   22.1,   24.4,   26.1,  999.0,  999.0,  999.0,  999.0,  999.0,   18.1,   19.0,   17.7,   17.8,   16.1,   12.6
2005/12/15 11:40,    7.0,    7.9,    8.3,    8.8,    8.9,   10.7,   12.0,   15.3,   13.6,   14.3,   15.4,   16.5,   19.0,   18.9,   18.8,   18.2,   17.9,   16.7,   16.6,   20.4,   19.8,   17.2,  999.0,  999.0,  999.0,  999.0,  999.0,  999.0,  999.0,  999.0
2005/12/15 11:50,    4.7,    7.0,    8.2,    7.9,    6.7,    7.5,   13.0,   12.2,   12.9,   14.4,   15.4,   16.0,   16.3,   17.1,   17.2,   16.6,   15.2,   17.0,   18.4,   18.7,   18.4,   18.6,   16.7,  999.0,  999.0,  999.0,   14.8,  999.0,   14.8,   15.9
2005/12/15 12:00,    8.1,    7.8,    5.0,   11.1,   12.9,   15.3,   12.3,   15.1,   16.1,   16.3,   16.8,   17.3,   16.9,   17.8,   17.0,   12.9,   13.6,   16.0,   17.3,   18.1,   18.6,   18.7,   15.7,  999.0,  999.0,   16.7,   16.0,   14.2,   13.1,   12.4
2005/12/15 12:10,   10.8,  999.0,  999.0,  999.0,  999.0,   13.7,   10.9,   13.2,  999.0,   17.6,   16.8,   15.6,   13.6,   16.1,  999.0,   12.6,   15.7,   15.9,   16.7,   17.9,   17.3,   17.0,  999.0,  999.0,  999.0,   16.2,   14.4,   11.8,   10.7,   11.5
2005/12/15 12:20,  999.0,  999.0,  999.0,   11.2,   12.0,   13.4,   13.4,   14.2,   14.0,   14.8,   15.0,   15.6,   16.2,   17.0,   10.2,   12.2,   12.9,   14.1,   16.6,   17.2,   16.7,   17.1,  999.0,  999.0,   15.6,   14.9,   14.7,   13.3,   11.8,   10.7
2005/12/15 12:30,  999.0,  999.0,    7.3,   10.3,   11.4,   12.6,   13.0,   11.8,   12.6,   10.2,   16.1,   15.1,   15.0,   14.0,   12.7,   13.5,   14.2,   15.1,   14.6,   14.5,   16.5,   15.8,  999.0,  999.0,   15.7,   15.3,   14.7,   13.8,   14.0,   13.7
2005/12/15 12:40,  999.0,    5.1,    5.3,   13.6,  999.0,  999.0,   13.1,   13.3,  999.0,  999.0,  999.0,  999.0,  999.0,  999.0,  999.0,  999.0,  999.0,  999.0,  999.0,  999.0,  999.0,  999.0,  999.0,   14.2,   15.0,   15.0,   14.9,   14.8,   13.9,   14.2
2005/12/15 12:50,    4.7,    6.1,    8.2,    9.1,   11.1,   12.9,   12.4,  999.0,  999.0,  999.0,  999.0,  999.0,  999.0,  999.0,  999.0,  999.0,  999.0,  999.0,  999.0,  999.0,  999.0,  999.0,   14.0,   15.8,   14.8,   15.3,   15.4,   14.0,   14.0,   13.3
2005/12/15 13:00,    4.0,    5.5,    7.0,    7.9,   10.8,   12.0,   13.4,   12.8,  999.0,  999.0,  999.0,  999.0,  999.0,  999.0,  999.0,  999.0,  999.0,  999.0,  999.0,  999.0,  999.0,  999.0,   13.4,   15.3,   15.3,   15.6,   13.4,   13.6,   13.3,   12.0
2005/12/15 13:10,    3.2,    6.3,    6.4,    8.4,    9.6,  999.0,   11.1,  999.0,  999.0,  999.0,  999.0,  999.0,  999.0,  999.0,  999.0,  999.0,  999.0,  999.0,  999.0,  999.0,  999.0,  999.0,  999.0,   14.5,   15.0,   14.6,   13.8,   14.1,   13.8,   12.1
2005/12/15 13:20,    3.6,    4.5,    6.8,    8.3,    9.3,   11.1,   11.4,   12.7,  999.0,  999.0,  999.0,  999.0,  999.0,  999.0,  999.0,  999.0,  999.0,  999.0,  999.0,  999.0,  999.0,  999.0,  999.0,   13.5,   14.2,   14.1,   13.8,   12.7,   11.4,   10.3
2005/12/15 13:30,    2.7,    4.4,    6.2,    7.5,    9.5,   10.6,   11.9,  999.0,  999.0,  999.0,   14.9,   15.0,   15.5,  999.0,  999.0,  999.0,  999.0,  999.0,  999.0,  999.0,  999.0,  999.0,  999.0,  999.0,   12.5,   13.1,   12.7,   12.5,   10.7,    9.8
2005/12/15 13:40,    2.3,    4.0,    5.2,    5.8,    9.2,   10.8,  999.0,   13.4,  999.0,  999.0,  999.0,  999.0,  999.0,  999.0,  999.0,  999.0,  999.0,  999.0,  999.0,  999.0,  999.0,  999.0,  999.0,  999.0,  999.0,  999.0,  999.0,  999.0,  999.0,  999.0
2005/12/15 13:50,    2.3,    4.3,    6.0,    6.6,    8.8,   10.2,   11.8,   12.6,  999.0,  999.0,  999.0,  999.0,  999.0,  999.0,  999.0,  999.0,  999.0,  999.0,  999.0,   -1.4,  999.0,  999.0,  999.0,   -0.2,  999.0,  999.0,  999.0,  999.0,  999.0,    1.2
2005/12/15 14:00,    2.3,    3.5,    6.2,    8.3,    9.6,   11.0,   11.3,   10.4,  999.0,  999.0,  999.0,   13.6,  999.0,  999.0,  999.0,  999.0,  999.0,  999.0,   -0.0,  999.0,    0.3,  999.0,   -0.2,    0.2,   -0.3,  999.0,  999.0,  999.0,  999.0,    0.1
2005/12/15 14:10,    2.8,    3.5,    5.9,    9.2,   10.7,    6.8,   11.5,   12.1,  999.0,  999.0,  999.0,  999.0,  999.0,  999.0,  999.0,  999.0,  999.0,  999.0,  999.0,  999.0,  999.0,  999.0,  999.0,   -1.1,    1.7,  999.0,  999.0,  999.0,  999.0,  999.0
2005/12/15 14:20,    2.8,  999.0,    5.5,  999.0,   10.0,   10.6,    7.8,    9.5,  999.0,  999.0,  999.0,  999.0,  999.0,  999.0,  999.0,   -0.5,  999.0,  999.0,   -0.4,  999.0,  999.0,  999.0,    0.4,   -1.6,  999.0,  999.0,  999.0,  999.0,  999.0,  999.0
2005/12/15 14:30,    3.5,    5.2,    6.3,    6.4,    8.0,    9.1,   10.2,    9.9,   10.6,  999.0,  999.0,  999.0,  999.0,  999.0,  999.0,    0.7,  999.0,   -1.0,  999.0,    0.8,  999.0,   -0.1,   -0.6,    0.4,    0.1,  999.0,  999.0,  999.0,  999.0,    0.4
2005/12/15 14:40,    4.1,    6.0,    4.5,    6.8,    8.6,    6.4,    9.2,  999.0,   11.0,  999.0,  999.0,  999.0,  999.0,  999.0,  999.0,    1.0,  999.0,    0.1,    0.1,   -0.2,  999.0,   -0.9,  999.0,    2.0,   -0.0,  999.0,  999.0,  999.0,    0.2,   -0.6
2005/12/15 14:50,    5.4,    5.5,    4.7,    5.2,    8.5,    7.0,    8.9,    8.1,    6.6,    6.3,  999.0,    8.1,    2.5,    0.3,    1.7,    0.2,  999.0,    0.1,    1.0,    0.0,  999.0,    0.3,    0.6,   -0.2,   -0.1,  999.0,  999.0,  999.0,  999.0,    0.7
2005/12/15 15:00,    6.1,    3.6,    3.9,    4.4,    6.6,    7.7,    8.7,    4.2,    6.9,    6.9,    8.2,   11.2,    1.3,    1.2,    3.9,    4.1,  999.0,    0.1,    4.5,    0.0,    0.7,   -0.1,    0.1,    0.8,    0.3,  999.0,  999.0,  999.0,  999.0,    0.5
2005/12/15 15:10,    4.8,    5.4,    3.8,    5.5,    4.5,    7.5,    7.3,    8.0,    9.2,    9.1,   10.0,   11.3,  999.0,    0.9,    2.8,    2.1,  999.0,  999.0,  999.0,   -0.2,  999.0,  999.0,   -0.4,    1.5,   -0.7,  999.0,  999.0,  999.0,  999.0,  999.0
2005/12/15 15:20,    5.5,    6.8,    3.7,    4.0,    6.0,    6.7,    7.5,    8.9,    8.5,    5.1,    9.6,  999.0,    0.3,    3.4,    1.8,    0.4,  999.0,  999.0,    0.3,  999.0,    1.4,    0.3,   -0.7,    0.8,    0.1,  999.0,  999.0,  999.0,  999.0,   -0.2
2005/12/15 15:30,    5.0,    6.4,    6.9,    4.1,    6.8,    7.2,    7.9,    6.0,    6.6,    5.0,    5.5,    7.5,    6.6,    2.5,    0.5,    5.4,   13.8,    1.9,  999.0,  999.0,  999.0,  999.0,    1.6,  999.0,   -1.1,  999.0,  999.0,  999.0,  999.0,    1.0
2005/12/15 15:40,    2.6,    5.2,    5.9,    5.3,    6.1,    7.9,    8.6,    9.6,    8.2,    8.3,    8.1,   10.6,   12.8,    1.0,   -0.6,   12.4,   13.6,  999.0,   -0.4,  999.0,  999.0,  999.0,  999.0,    0.3,    1.3,  999.0,  999.0,  999.0,  999.0,  999.0
2005/12/15 15:50,    3.6,    5.6,    6.4,    4.6,    6.6,    7.3,    6.8,    8.4,    9.7,   10.9,   10.6,   10.4,    5.8,    1.4,    3.9,    8.5,  999.0,  999.0,   -0.1,  999.0,    0.9,   -0.4,    0.7,    0.5,    4.7,  999.0,  999.0,  999.0,  999.0,  999.0
2005/12/15 16:00,    3.8,    6.5,    7.1,    6.6,    6.2,    7.2,    8.1,    8.5,    7.8,    8.8,    8.9,    9.3,  999.0,    0.2,    6.7,    3.3,  999.0,   -0.0,  999.0,    1.7,  999.0,  999.0,  999.0,  999.0,    0.9,  999.0,  999.0,  999.0,  999.0,  999.0
2005/12/15 16:10,    4.5,    5.7,    5.1,    8.4,    7.9,    8.1,    7.4,    7.5,    8.4,    8.8,    9.1,  999.0,  999.0,    1.0,    0.9,    2.8,  999.0,  999.0,    0.0,    0.3,  999.0,  999.0,  999.0,    0.7,   -0.2,  999.0,  999.0,  999.0,  999.0,    1.0
2005/12/15 16:20,    5.1,    4.8,    5.6,    6.1,    8.0,    8.9,    8.5,    8.4,    8.2,    9.1,    9.1,   10.4,    4.1,    1.9,    5.1,    1.1,  999.0,  999.0,  999.0,  999.0,  999.0,  999.0,  999.0,  999.0,    1.4,  999.0,  999.0,  999.0,  999.0,    0.3
2005/12/15 16:30,    5.1,    5.6,    6.0,    6.2,    8.3,    8.4,    9.2,    9.1,    9.7,    8.9,    9.6,  999.0,  999.0,    4.6,    1.2,    0.8,  999.0,  999.0,  999.0,    0.5,  999.0,  999.0,  999.0,  999.0,    0.8,  999.0,  999.0,  999.0,  999.0,   -0.4
2005/12/15 16:40,    4.0,    4.9,    4.7,    6.8,    7.7,    8.5,    8.4,   10.5,    9.5,    8.7,  999.0,  999.0,  999.0,    0.3,    1.9,   -0.2,  999.0,   -1.0,  999.0,  999.0,  999.0,  999.0,  999.0,   -0.3,   -0.3,  999.0,  999.0,  999.0,  999.0,  999.0
2005/12/15 16:50,    4.2,    4.4,    4.9,    6.2,    7.2,    8.8,    7.8,    8.4,    8.9,   10.4,  999.0,  999.0,  999.0,    2.5,    0.6,   -0.1,  999.0,    3.1,  999.0,    0.8,  999.0,  999.0,   -0.1,   -0.1,   -0.8,  999.0,  999.0,  999.0,  999.0,   -0.6
2005/12/15 17:00,    3.9,    4.8,    4.9,    6.1,    6.9,    7.6,    8.7,    9.5,    9.4,  999.0,  999.0,   12.1,  999.0,    0.1,    4.8,    2.7,  999.0,  999.0,  999.0,  999.0,  999.0,  999.0,  999.0,  999.0,    0.4,  999.0,  999.0,  999.0,  999.0,    0.7
2005/12/15 17:10,    3.3,    4.7,    5.5,    5.9,    6.3,    7.9,    8.5,    8.3,    8.0,  999.0,  999.0,   12.1,   12.6,  999.0,    3.9,    4.4,  999.0,    0.8,   -0.9,  999.0,    7.8,  999.0,  999.0,   -0.7,  999.0,  999.0,  999.0,  999.0,  999.0,  999.0
2005/12/15 17:20,    3.9,    5.7,    3.5,    5.4,    5.9,    6.2,    8.3,    9.2,   11.6,  999.0,   11.0,   12.4,   10.3,    3.8,    5.7,    1.6,  999.0,    0.9,    0.0,  999.0,  999.0,  999.0,   -0.1,   -0.1,   -1.6,  999.0,  999.0,  999.0,  999.0,    0.1
2005/12/15 17:30,    5.2,    5.2,    3.9,    5.2,    5.6,    7.4,    8.4,    9.2,    9.0,    9.0,   10.1,   10.8,   11.6,    0.5,    2.8,    0.1,   11.6,    2.1,    0.1,  999.0,  999.0,  999.0,  999.0,    2.0,    0.7,  999.0,  999.0,  999.0,  999.0,   -0.6
2005/12/15 17:40,    5.2,    5.8,    6.1,    6.4,    8.5,    8.7,   10.5,    9.2,   11.0,    9.9,   10.3,    9.6,    7.8,    2.7,    1.8,    0.4,  999.0,    1.1,   -0.1,  999.0,  999.0,  999.0,  999.0,    2.2,  999.0,  999.0,  999.0,  999.0,  999.0,   -0.9
2005/12/15 17:50,    5.7,    4.8,    6.2,    6.2,  999.0,  999.0,    7.9,    9.7,    9.9,    8.6,    9.2,   10.4,    9.7,    4.8,    1.7,  999.0,    2.8,  999.0,  999.0,   -0.1,  999.0,  999.0,  999.0,  999.0,  999.0,  999.0,  999.0,  999.0,  999.0,    0.2
2005/12/15 18:00,    4.6,    4.2,    4.5,    5.9,    6.2,    8.5,    9.1,    9.0,    9.0,    9.7,    9.7,   10.2,    9.2,    4.3,    0.8,    1.3,  999.0,   -0.4,    0.3,  999.0,  999.0,  999.0,  999.0,   -0.1,   -1.0,  999.0,  999.0,  999.0,  999.0,    0.2
2005/12/15 18:10,    5.2,    4.3,    5.4,    5.8,    6.8,    9.4,   10.2,    8.9,    9.8,    9.5,   10.7,   12.0,   11.3,   11.8,    9.3,    3.0,  999.0,    1.3,    0.4,   -0.7,  999.0,  999.0,  999.0,    0.4,  999.0,  999.0,  999.0,  999.0,  999.0,    0.4
2005/12/15 18:20,    5.9,    6.8,    7.7,    6.6,    8.4,    9.5,   10.3,    9.1,    9.5,    9.7,   10.5,   11.2,   11.7,   12.9,   12.3,    0.5,  999.0,  999.0,  999.0,  999.0,  999.0,  999.0,  999.0,  999.0,  999.0,  999.0,  999.0,  999.0,  999.0,   -0.1
2005/12/15 18:30,    6.6,    8.4,    6.3,    7.9,    9.3,    9.8,   10.5,    8.3,    9.4,   10.0,    9.7,   11.3,   11.4,   11.3,   14.2,    1.4,  999.0,  999.0,  999.0,  999.0,  999.0,  999.0,  999.0,    1.2,    1.1,  999.0,  999.0,  999.0,  999.0,  999.0
2005/12/15 18:40,  999.0,    2.6,  999.0,  999.0,  999.0,  999.0,   10.7,    8.0,   11.0,   10.3,   10.2,    9.6,   11.2,   13.1,   13.4,  999.0,  999.0,  999.0,  999.0,  999.0,  999.0,  999.0,  999.0,    0.7,   -1.1,  999.0,  999.0,  999.0,  999.0,  999.0
2005/12/15 18:50,  999.0,    6.4,    8.0,    6.0,  999.0,  999.0,  999.0,  999.0,    8.8,    7.7,   10.6,   10.5,   11.4,   13.3,   11.7,    1.9,  999.0,  999.0,    0.5,   -0.1,  999.0,  999.0,   -0.2,    1.1,  999.0,  999.0,  999.0,  999.0,  999.0,  999.0
2005/12/15 19:00,  999.0,    5.0,  999.0,  999.0,  999.0,   11.1,  999.0,    9.6,   11.1,    9.1,   11.2,   10.3,   11.8,   12.6,   10.8,    1.7,   11.4,    1.3,  999.0,  999.0,  999.0,  999.0,  999.0,   -0.2,   -1.2,  999.0,  999.0,  999.0,  999.0,  999.0
2005/12/15 19:10,    7.2,    6.1,  999.0,  999.0,  999.0,    9.6,    8.1,    9.0,    9.8,    9.8,    9.0,   11.7,   12.4,   12.1,    5.0,    2.4,  999.0,  999.0,  999.0,  999.0,  999.0,  999.0,  999.0,   -0.0,    0.6,  999.0,  999.0,  999.0,  999.0,  999.0
2005/12/15 19:20,    5.6,    6.8,    5.4,  999.0,  999.0,   10.2,    8.9,    9.0,    9.4,   11.0,   11.8,   11.0,   10.5,    9.9,    7.5,    1.2,   12.5,  999.0,   -0.5,  999.0,  999.0,  999.0,  999.0,    1.9,    1.4,  999.0,  999.0,  999.0,  999.0,    0.7
2005/12/15 19:30,    5.6,    8.3,    5.3,  999.0,  999.0,    6.6,    9.8,    8.6,    9.3,    9.5,   10.7,   11.8,   11.3,   11.3,    4.3,    0.4,   11.1,  999.0,    0.4,  999.0,  999.0,  999.0,  999.0,   -1.9,    0.2,  999.0,  999.0,  999.0,  999.0,  999.0
2005/12/15 19:40,  999.0,    6.4,    8.0,    7.2,  999.0,    6.9,    8.8,    8.1,    9.1,    9.6,   10.3,   11.2,   12.2,   11.7,   11.3,    0.3,  999.0,  999.0,  999.0,  999.0,  999.0,  999.0,  999.0,    0.3,   -0.0,  999.0,  999.0,  999.0,  999.0,  999.0
2005/12/15 19:50,  999.0,    8.2,   10.5,   10.4,  999.0,    4.7,    9.5,    9.4,    9.6,   10.6,   11.8,   11.3,   11.3,   11.3,   11.0,    3.5,   14.9,  999.0,  999.0,  999.0,  999.0,  999.0,  999.0,  999.0,   -0.1,  999.0,  999.0,  999.0,  999.0,   -1.2
2005/12/15 20:00,    5.2,    7.2,    8.3,    7.3,    7.1,    7.0,    7.6,    8.1,    9.0,    9.4,   10.3,   10.8,   10.8,    9.6,    9.0,    4.5,   12.5,  999.0,   12.1,  999.0,  999.0,  999.0,    4.4,   -0.4,    0.6,  999.0,  999.0,  999.0,  999.0,  999.0
2005/12/15 20:10,    4.6,    7.0,    6.8,    7.1,    6.8,    9.1,    7.8,    8.0,    7.5,    8.5,   10.0,   11.9,   12.8,    7.7,    8.0,    2.2,  999.0,  999.0,  999.0,  999.0,  999.0,  999.0,    5.8,  999.0,    0.1,  999.0,  999.0,  999.0,  999.0,  999.0
2005/12/15 20:20,    7.8,   10.0,    5.8,   10.7,   10.1,    7.4,  999.0,    7.4,    8.7,   11.2,   12.3,   12.1,  999.0,    8.2,  999.0,    1.1,  999.0,  999.0,  999.0,  999.0,  999.0,  999.0,  999.0,  999.0,  999.0,  999.0,  999.0,  999.0,  999.0,  999.0
2005/12/15 20:30,    6.4,    7.0,    7.0,    7.9,    8.4,    8.4,    8.4,    7.9,    8.4,    9.2,   10.9,  999.0,  999.0,    8.6,  999.0,    0.9,  999.0,  999.0,  999.0,  999.0,  999.0,  999.0,  999.0,  999.0,  999.0,  999.0,  999.0,  999.0,  999.0,  999.0
2005/12/15 20:40,    7.1,    7.7,    8.8,    8.2,    8.0,    7.7,    8.3,    8.7,    9.7,    9.6,   10.2,   11.6,   12.8,   11.0,    1.5,    7.2,  999.0,  999.0,   11.5,  999.0,  999.0,   12.3,   15.1,   12.5,    1.5,  999.0,  999.0,  999.0,  999.0,  999.0
2005/12/15 20:50,  999.0,    8.4,    8.6,    6.4,   11.0,   10.2,    8.6,   11.0,   10.9,   10.3,    9.6,   10.7,   12.1,    8.8,  999.0,    3.9,   11.4,  999.0,   12.5,  999.0,  999.0,  999.0,   15.2,    9.2,    3.9,  999.0,  999.0,  999.0,  999.0,    1.1
2005/12/15 21:00,    6.8,    9.2,    8.8,    8.2,  999.0,    8.8,   12.1,    9.9,   10.2,   10.0,    9.1,   10.8,    9.5,    1.5,    4.9,    4.9,   10.5,  999.0,    5.8,  999.0,  999.0,  999.0,  999.0,  999.0,    1.4,  999.0,  999.0,  999.0,  999.0,  999.0
2005/12/15 21:10,    5.8,    8.2,    8.7,    8.1,    8.5,    9.1,    8.7,    9.0,    9.0,   10.5,   10.3,  999.0,  999.0,    3.3,    0.9,    6.3,   11.8,  999.0,    9.1,   -0.2,    1.4,  999.0,  999.0,  999.0,    1.0,  999.0,  999.0,  999.0,  999.0,  999.0
2005/12/15 21:20,    7.3,    7.5,    7.2,    7.8,    7.9,    8.4,    9.7,    8.6,   10.1,  999.0,  999.0,  999.0,  999.0,  999.0,    7.3,    4.2,   11.7,   12.6,    1.2,    0.1,  999.0,  999.0,  999.0,  999.0,   -0.1,  999.0,  999.0,  999.0,  999.0,    0.7
2005/12/15 21:30,    6.2,    6.9,    7.0,    6.9,    7.8,    9.5,    9.7,    9.2,    8.9,  999.0,  999.0,  999.0,  999.0,    1.4,    2.0,    0.7,  999.0,   13.2,   14.7,    9.5,   12.8,  999.0,  999.0,  999.0,   -0.4,  999.0,  999.0,  999.0,  999.0,    0.9
2005/12/15 21:40,    5.3,    6.3,    6.2,    8.1,    7.8,    9.9,    9.5,    8.7,    8.9,  999.0,  999.0,  999.0,  999.0,  999.0,  999.0,    3.3,  999.0,   12.5,   12.7,   13.7,  999.0,  999.0,  999.0,  999.0,    0.2,  999.0,  999.0,  999.0,  999.0,  999.0
2005/12/15 21:50,    6.4,    5.6,    6.4,    7.0,    9.2,    9.4,    9.2,   10.4,    9.3,    8.7,  999.0,  999.0,  999.0,  999.0,    3.2,   11.9,   11.7,   14.1,   13.6,  999.0,  999.0,  999.0,  999.0,  999.0,    0.8,  999.0,   12.1,  999.0,  999.0,  999.0
2005/12/15 22:00,    5.2,    4.9,    4.4,    6.1,    8.3,    8.2,    8.9,    8.9,    8.9,    9.1,  999.0,  999.0,  999.0,    1.9,    1.7,  999.0,  999.0,   13.0,  999.0,  999.0,  999.0,  999.0,  999.0,   -0.2,    0.5,  999.0,   10.5,  999.0,  999.0,  999.0
2005/12/15 22:10,    5.2,    6.0,    6.7,    6.7,    8.2,    8.4,    8.0,    9.6,  999.0,  999.0,  999.0,   11.2,  999.0,   12.0,   12.3,   12.6,   11.7,   13.2,   11.0,    5.6,   13.5,  999.0,  999.0,  999.0,  999.0,  999.0,  999.0,  999.0,  999.0,  999.0
2005/12/15 22:20,    3.6,    5.4,    7.3,    7.0,    7.1,    7.8,    8.9,    8.8,   10.3,  999.0,   12.2,   10.6,   10.4,   11.6,   12.1,   12.2,   12.2,   13.2,   13.9,  999.0,   13.3,  999.0,  999.0,  999.0,    3.6,  999.0,  999.0,  999.0,  999.0,  999.0
2005/12/15 22:30,    4.8,    4.9,    6.3,    9.1,    8.1,    8.0,    6.5,    8.4,    9.5,    9.8,    9.9,   10.1,    9.3,   13.0,   13.2,   12.2,   12.7,   12.4,   14.2,  999.0,   14.1,  999.0,  999.0,   -0.0,    0.8,  999.0,  999.0,  999.0,  999.0,  999.0
2005/12/15 22:40,    4.3,    4.8,    7.2,    5.4,    7.0,    7.4,    7.1,    7.6,    7.0,    8.4,    9.4,   10.0,    9.2,    9.7,    8.9,    9.6,   11.6,   12.8,   12.0,  999.0,  999.0,  999.0,  999.0,  999.0,  999.0,  999.0,  999.0,  999.0,  999.0,  999.0
2005/12/15 22:50,    1.4,    3.8,    6.9,  999.0,   11.3,    8.8,    7.4,    7.7,    7.9,    9.2,   10.1,    9.7,   10.3,   11.3,   11.5,   12.4,   12.6,   12.3,   12.6,   14.0,  999.0,  999.0,  999.0,    5.9,    7.8,   14.1,  999.0,  999.0,  999.0,  999.0
2005/12/15 23:00,    5.8,    5.8,    5.5,    7.5,    7.0,    7.1,    7.5,    7.3,    7.7,    7.6,    9.2,    9.3,    9.9,   10.0,   11.5,   10.0,   11.3,   10.4,   12.5,   13.8,   12.2,   11.3,  999.0,  999.0,  999.0,   11.5,  999.0,  999.0,  999.0,  999.0
2005/12/15 23:10,    5.3,    6.3,    7.6,    7.3,    8.4,    8.3,    8.9,    9.7,    9.9,   10.3,   11.3,    9.8,    8.5,    8.6,   10.2,    9.6,   11.4,   11.1,   12.4,   14.9,    8.8,  999.0,  999.0,    4.7,    0.5,  999.0,  999.0,  999.0,  999.0,  999.0
2005/12/15 23:20,    6.0,    5.1,    5.4,    6.1,    6.1,    6.1,    6.4,    8.9,    9.0,    8.3,  999.0,    9.0,    8.9,    9.0,    9.1,    8.5,    9.9,    9.8,   12.7,   14.3,  999.0,  999.0,  999.0,  999.0,    0.9,  999.0,  999.0,  999.0,  999.0,  999.0
2005/12/15 23:30,    3.0,    5.1,    7.4,    6.9,    9.0,    4.6,    6.8,    3.1,    6.0,    5.9,    6.3,    6.3,    5.4,    2.9,    1.0,    0.2,  999.0,    0.5,   -0.3,    0.9,    0.5,  999.0,   -1.9,    0.4,    0.3,  999.0,  999.0,  999.0,    0.2,   -0.1
2005/12/15 23:40,    3.4,    4.9,    6.6,    8.7,    5.1,    9.7,    9.5,    9.4,    7.4,    8.2,    6.8,    8.2,  999.0,    1.2,  999.0,    0.1,   -0.2,   -1.1,    1.0,   -0.5,  999.0,  999.0,   -0.8,   -0.3,    0.4,  999.0,  999.0,  999.0,  999.0,  999.0
2005/12/15 23:50,    0.7,  999.0,    6.6,    6.8,    8.3,    8.5,    8.5,    8.0,    7.9,    7.6,  999.0,  999.0,  999.0,    1.2,    1.7,   -0.3,  999.0,  999.0,   -0.7,  999.0,  999.0,  999.0,  999.0,    0.4,   -0.1,  999.0,  999.0,  999.0,  999.0,    0.3
